BELINTERSAT-1

Last updated on Tue Jul 01 2025 00:02:47 GMT+0000 (Coordinated Universal Time)

1 41238U 16001A 25181.57805076 .00000106 00000+0 00000+0 0 9996 2 41238 0.0492 265.0152 0002868 277.0651 356.3947 1.00273552 34715
UTC large
Height (km)
Speed (km/s)
/
Latitude / Longitude
Inclination (degrees)
Orbital Period (minutes)
Azimuth
Elevation
Range (km)
Doppler Factor

Next 0 passes for location: London (51.5072 / 0.1276)

Sorry there are no passes over London.